weather.gov     
National Weather Service

Regional Weather Roundup
NWS Homepage
This page is being discontinued on March 12, 2014.
The same data is available at this site. Please update your bookmarks.
Thank you, and we apologize for the inconvenience.
Please send an email to SR-SRH.Webmaster@noaa.gov with any concerns.


Current Version
Previous Version:    01  02  03  04  05  06  07  08  09  10  11  12  13  14  15  16  17  18  19  20  21  22  23  24  25  26  27  28  29  30  
   31  32  33  34  35  36  37  38  39  40  41  42  43  44  45  46  47  48  49  50  51  52  53  54  55  56  57  58  59  
[Printable]
782
ASUS44 KOUN 182310
RWROK

WEATHER ROUNDUP FOR OKLAHOMA
NATIONAL WEATHER SERVICE NORMAN OK
600 PM CDT THU SEP 18 2014

NOTE: "FAIR" INDICATES FEW OR NO CLOUDS BELOW 12,000 FEET WITH NO
      SIGNIFICANT WEATHER AND/OR OBSTRUCTIONS TO VISIBILITY.

OKZ001>007-009>012-014-015-017-190000-
NORTHWEST OKLAHOMA AND THE PANHANDLE

CITY           SKY/WX    TMP DP  RH WIND       PRES   REMARKS
GAGE           SUNNY     85  65  51 S15       29.92S
ENID/WOODRING  MOSUNNY   91  57  31 SE14      29.87S HX  90
$$

OKZ016-021>023-033>039-044-045-190000-
SOUTHWEST OKLAHOMA

CITY           SKY/WX    TMP DP  RH WIND       PRES   REMARKS
LAWTON/REGL    CLOUDY    84  66  54 SE3       29.88F
LAWTON/FT SILL CLOUDY    83  68  59 E3        29.88S
FREDERICK      CLOUDY    80  68  66 SE5       29.86F
CLINTON        MOSUNNY   83  66  56 SE8       29.94F
HOBART         PTSUNNY   83  66  56 S7        29.90F
ALTUS AFB      SUNNY     80  69  68 SE6       29.90F
$$

OKZ018>020-024>031-190000-
CENTRAL OKLAHOMA

CITY           SKY/WX    TMP DP  RH WIND       PRES   REMARKS
OKLAHOMA CITY  MOSUNNY   86  64  47 S7        29.88S
OKC/WILEY POST SUNNY     88  64  44 CALM      29.88S
OKC/TINKER AFB MOSUNNY   87  64  46 S12       29.89R
STILLWATER     SUNNY     88  63  43 E3        29.88S
GUTHRIE        SUNNY     88  64  44 E3        29.87F
$$

OKZ008-013-054>072-190000-
NORTHEAST OKLAHOMA

CITY           SKY/WX    TMP DP  RH WIND       PRES   REMARKS
TULSA          MOSUNNY   82  66  58 E8        29.90S
TULSA/JONES    PTSUNNY   82  68  62 E7        29.89S
PONCA CITY     SUNNY     87  59  38 SE8       29.88S
BARTLESVILLE   MOSUNNY   74  66  76 E8        29.94R
MUSKOGEE       SUNNY     83  68  60 NE3       29.90S
$$

OKZ032-040>043-046>053-073>077-190000-
SOUTH CENTRAL/SOUTHEAST OKLAHOMA

CITY           SKY/WX    TMP DP  RH WIND       PRES   REMARKS
ARDMORE/DWNTWN PTSUNNY   79  64  61 CALM      29.88S
MCALESTER      MOSUNNY   84  67  56 E3        29.88S
$$





U.S. Dept. of Commerce
NOAA National Weather Service
1325 East West Highway
Silver Spring, MD 20910
E-mail: w-nws.webmaster@noaa.gov
Page last modified: May 16, 2007
NATIONAL WEATHER SERVICE: for Safety, for Work, for Fun - FOR LIFE